Regional Weather Roundup
Issued by NWS

Home | Current Version | Previous Version | Graphics & Text | Print | Product List | Glossary On
Versions: 1 2 3 4 5 6 7 8 9 10 11 12 13 14 15 16 17 18 19 20 21 22 23 24 25 26 27 28 29 30 31 32 33 34 35 36 37 38 39 40 41 42 43 44 45 46 47 48 49 50
000
ASUS45 KSLC 190010
RWRUT

UTAH REGIONAL WEATHER ROUNDUP
NATIONAL WEATHER SERVICE SALT LAKE CITY UT
600 PM MDT SAT APR 18 2015

UTZ001>011-023>025-190100-

NORTHERN UTAH

CITY           SKY/WX    TMP DP  RH WIND       PRES   REMARKS
BRIGHAM CITY   MOSUNNY   70  20  15 N18G28    29.96F
HILL AFB       SUNNY     65  31  29 W9        29.98S
LOGAN          SUNNY     68  27  21 N14       29.96R
OGDEN          MOSUNNY   66  31  27 NW7       29.97S
PROVO AIRPORT  MOSUNNY   64  34  32 NW21G26   29.97S
SALT LAKE CITY MOSUNNY   66  30  26 NW8       29.97F
VERNAL         MOSUNNY   61  32  33 E20       29.93R
WENDOVER       SUNNY     72  19  14 NE16      29.98S
HEBER CITY     MOSUNNY   63  27  25 NW13      29.98F
WEST JORDAN    SUNNY     64  32  29 N10       29.99F

$$

UTZ012>022-026-027-190100-

SOUTHERN/CENTRAL UTAH

CITY           SKY/WX    TMP DP  RH WIND       PRES   REMARKS
BLANDING       MOSUNNY   59  29  31 N7        30.02F
BRYCE CANYON   MOSUNNY   58  17  20 NW16G25   30.07S
CEDAR CITY     SUNNY     67  15  13 CALM      30.00S
DELTA          SUNNY     69  17  13 NW16G22   29.98S
HANKSVILLE     MOSUNNY   72  23  16 NW15G31   29.90S
MILFORD        SUNNY     70  16  12 N15G23    29.98F
MOAB/CYNLANDS  MOSUNNY   58  42  55 SE8       29.91S
PRICE          PTSUNNY   54  31  41 W20G37    29.97R
ST GEORGE      PTCLDY    81  25  12 SW16      29.87F
KANAB          MOSUNNY   73  19  13 NW16      29.98R

$$

REGIONAL REPORTS     COLORADO/ARIZONA

CITY           SKY/WX    TMP DP  RH WIND       PRES   REMARKS
CRAIG, CO      LGT RAIN  36  33  89 SE7       30.02R FOG     WCI  30
GRAND JUNCTION CLOUDY    46  40  79 SE12      30.01R
RIFLE          CLOUDY    35  32  88 NE3       30.02F
MONTROSE       RAIN      41  37  86 NW5       30.06R FOG
CORTEZ         MOSUNNY   59  27  29 NW15G28   29.97S
PAGE, AZ       MOSUNNY   74  21  13 N8        29.89S
GRAND CANYON   SUNNY     63  10  12 VRB7      30.05S
KINGMAN        SUNNY     80  11   7 W10       29.92F
FLAGSTAFF      SUNNY     63   9  12 W9        30.06S

$$

REGIONAL REPORTS    NEVADA/IDAHO/WYOMING

CITY           SKY/WX    TMP DP  RH WIND       PRES   REMARKS
LAS VEGAS, NV  MOSUNNY   85  13   7 S10G21    29.80F
ELY            PTSUNNY   63  17  17 NE9       30.04F
ELKO           SUNNY     68  18  14 N17G25    30.05S
POCATELLO, ID  MOSUNNY   69  23  17 W9        29.99S
BURLEY         SUNNY     67  29  24 W17G23    30.00F
EVANSTON, WY   MOSUNNY   54  23  30 N20G29    30.03R
ROCK SPRINGS   PTSUNNY   53  23  31 NE23G39   29.96R
KEMMERER       MOSUNNY   55  19  24 NW26      30.01R

$$



USA.gov is the U.S. government's official web portal to all federal, state and local government web resources and services.